Location: ????
(30.2663°N, 31.2484°E)
Time: 13:24:34
(UTC+00:00)

CZ-2C R/B - Pass Details

Date: 29 March 2023
Orbit: 784 x 870 km, 98.3° (Epoch: 28 May)

Event Time Altitude Azimuth Distance (km) Brightness Sun altitude
Exits shadow 03:00:23 14° 273° (W) 2,264 4.3 -11.1°
Drops below altitude 10° 03:02:32 10° 296° (WNW) 2,505 4.7 -10.7°
Sets 03:06:16 0° 322° (NW) 3,435 5.6 -9.9°
